Время (UTC), дата Ветер
(°,м/с) 
Видим.   Явления Облачность Т
(°С)
Тd
(°С)
f(%) Тe
(°С)
Pmin
(гПа)
dP
(гПа)
Po
(мм)
O2
(г/м3)
Тmin Tmax R s Состояние
почвы
00 01.02.12 080 (В) 10 км  слаб. снег  10/10 300 м 
[Ns]
-18.8 -20.6 86 -25  1023.2  -0.6  722  314           
03 01.02.12 090 (В) 4000 м  слаб. снег  10/10 200 м 
[Ns]
-18.9 -20.8 85 -23  1023.1  -0.1  722  314        31  очень
неравномерный
сухой снег
(сугробы, заносы) 
06 01.02.12 080 (В) 10 км  слаб. снег  10/6 600 м средняя 
[Sc|Ac und]
-18.4 -20.2 85 -23  1022.9  722  314  -18.9       
09 01.02.12 100 (В) >10 км  {снег}  4/0 средняя 
[Ac trans]
-16.7 -18.4 87 -17  1022.3  -0.2  722  311           
12 01.02.12 090 (В) >10 км  {снег}  8/0 средняя, верхняя 
[Ac trans|Ci fib]
-16.1 -17.7 88 -16  1022.6  0.4  723  311           
15 01.02.12 070 (В) >10 км    8/0 средняя, верхняя 
[Ac trans|Ci fib]
-19.6 -21.5 85 -20  1024.9  1.3  724  316    -15       
18 01.02.12 320 (СЗ) >10 км    8/0 средняя, верхняя 
[Ac trans|Ci fib]
-20.1 -22 85 -20  1026.8  1.7  725  317    -15  0.4     
21 01.02.12 150 (ЮВ) >10 км  слаб. снег  10/4 600 м 
[Sc]
-17.1 -19 86 -17  1028.3  726  314           
00 02.02.12 260 (З) >10 км  {снег}  4/0 средняя 
[Ac trans]
-18.4 -20.2 85 -24  1030.8  2.2  728  316           
03 02.02.12 280 (З) 10 км  ледяные иглы{снег}  4/0 средняя 
[Ac trans]
-17.4 -19.1 87 -24  1032.2  1.5  729  315        32  очень
неравномерный
сухой снег
(сугробы, заносы) 
06 02.02.12 300 (СЗ) 10 км  в посл. час снег  4/3 300 м средняя 
[Sc|Ac trans]
-16 -17.7 87 -18  1034.4  2.4  731  314  -20.6    0.0     
09 02.02.12 130 (ЮВ) >10 км    3/0 средняя 
[Ac trans]
-14.2 -16 86 -14  1034.8  0.8  731  312           
12 02.02.12 110 (В) >10 км    ясно 
-15.1 -17 85 -17  1036  0.9  732  314           
15 02.02.12 110 (В) >10 км    ясно 
-18.5 -20.4 85 -21  1037.2  0.3  732  318    -12.9       
18 02.02.12 110 (В) >10 км    н/о 
-20.2 -22.2 84 -25  1037.9  0.3  733  320    -12.9       
21 02.02.12 130 (ЮВ) >10 км    ясно 
-19.5 -21.3 85 -20  1037.8  733  319           
00 03.02.12 140 (ЮВ) >10 км    н/о 
-17.6 -19.4 86 -23  1037.5  0.1  733  317           
03 03.02.12 130 (ЮВ) >10 км    6/0 средняя 
[Ac trans]
-16 -17.6 88 -20  1038  0.8  733  315        32  очень
неравномерный
сухой снег
(сугробы, заносы) 
06 03.02.12 110 (В) >10 км    10/0 средняя, верхняя 
[Ac trans|Ci fib]
-17.3 -19 87 -21  1039.9  1.6  735  317  -20.6         
09 03.02.12 120 (ЮВ) >10 км    3/0 верхняя 
[Ci fib]
-15 -16.9 85 -20  1040.8  1.3  736  315           
12 03.02.12 120 (ЮВ) >10 км    3/0 верхняя 
[Ci fib]
-13.2 -15.3 84 -18  1040.9  0.6  736  313           
15 03.02.12 120 (ЮВ) >10 км    3/0 средняя 
[Ac trans]
-16.3 -17.9 87 -22  1043  1.3  737  317    -13.1       
18 03.02.12 150 (ЮВ) >10 км    1/0 верхняя 
[Ci fib]
-17.7 -19.4 86 -25  1044.4  0.9  738  319    -13.1       
21 03.02.12 130 (ЮВ) >10 км    ясно 
-18.1 -19.9 86 -25  1044.7  0.2  738  320           
00 04.02.12 140 (ЮВ) >10 км    ясно 
-18.4 -20.2 85 -25  1045.1  0.3  738  320           
03 04.02.12 150 (ЮВ) >10 км    ясно 
-16.3 -17.9 87 -23  1044.4  -0.2  738  318        32  очень
неравномерный
сухой снег
(сугробы, заносы) 
06 04.02.12 140 (ЮВ) >10 км    3/3 300 м 
[Sc]
-12.8 -14.2 89 -19    0.7  738  313  -18.8      32  очень
неравномерный
сухой снег
(сугробы, заносы) 
09 04.02.12 110 (В) 10 км  позёмок  4/4 300 м 
[Sc]
-10.2 -11.5 90 -16  1043.5  -0.2  738  310           
12 04.02.12 120 (ЮВ) 10  10 км  позёмок  6/5 420 м средняя 
[Sc|Ac trans]
-7.6 -9 90 -14  1042.5  -0.4  738  307           
15 04.02.12 120 (ЮВ) 10 км    9/9 420 м 
-10.1 -11.4 90 -17  1043  738  310    -7.5       
18 04.02.12 110 (В) 3000 м  метель  10/5 200 м средняя 
[St|Ac und]
-12.1 -13.3 91 -19  1042.7  -0.7  737  312    -7.5  0.0     
21 04.02.12 110 (В) 3000 м  метель  10/8 300 м средняя 
[Sc|Ac und]
-11.9 -13.1 91 -19  1041.6  -0.9  737  312           
00 05.02.12 100 (В) 10  2000 м  метель  8/5 270 м средняя 
[St|Ac trans]
-11.9 -13 91 -20  1040.4  -1.1  736  311           
03 05.02.12 110 (В) 2000 м  метель  5/5 300 м 
[Sc]
-11.3 -12.4 91 -18  1038.9  -1.3  735  310        31  очень
неравномерный
сухой снег
(сугробы, заносы) 
06 05.02.12 110 (В) 1200 м  метель  6/6 150 м 
[St]
-11.5 -12.6 92 -19  1039  735  310  -12.4         
09 05.02.12 130 (ЮВ) 12  1300 м  метель  3/3 200 м 
[St]
-8.3 -9.3 93 -16  1036.5  -1.6  734  306           
12 05.02.12 120 (ЮВ) 10  1500 м  метель  4/4 240 м 
[St]
-8.4 -9.6 91 -15  1035.5  -1  733  306           
15 05.02.12 120 (ЮВ) 1500 м  метель  8/8 120 м 
[St]
-10.8 -11.9 91 -18  1035.3  -0.7  732  308    -7.8       
18 05.02.12 120 (ЮВ) 4000 м  ледяные иглы{снег}  10/3 200 м верхняя 
[St|Cs]
-13.5 -14.8 90 -20  1035.3  -0.6  732  312    -7.8       
21 05.02.12 120 (ЮВ) 10 км  ледяные иглы{снег}  4/0 верхняя 
[Ci fib]
-14.7 -16.2 88 -21  1034.6  -1  731  313           
00 06.02.12 120 (ЮВ) >10 км  {снег}  3/0 верхняя 
[Ci fib]
-14.9 -16.3 89 -20  1033.6  -0.9  731  313           
03 06.02.12 090 (В) 10 км  ледяные иглы{снег}  8/0 верхняя 
[Ci fib]
-15.6 -17.1 88 -20  1033.5  -0.3  730  313        33  очень
неравномерный
сухой снег
(сугробы, заносы) 
06 06.02.12 090 (В) >10 км  {снег}  4/3 200 м средняя 
[St|Ac trans]
-14.4 -15.9 88 -20  1034.3  1.6  731  312  -15.6    0.0     
09 06.02.12 110 (В) 11  3000 м  метель{снег}  3/3 300 м 
[Sc]
-13.4 -14.8 89 -22  1033.8  -0.3  731  311           
12 06.02.12 090 (В) 4000 м  метель{снег}  ясно 
-14.9 -16.6 87 -22  1034.3  0.1  731  313           
15 06.02.12 080 (В) 10 км    3/0 средняя 
[Ac trans]
-18.6 -20.4 86 -27  1036  0.8  732  318    -13.1       
18 06.02.12 090 (В) 10  2000 м  ледяные иглы{снег}  8/5 300 м средняя 
[Sc|Ac trans]
-20.4 -22.5 83 -30  1036.8  0.3  732  320    -13.1  0.0     
21 06.02.12 090 (В) 4000 м  ледяные иглы{снег}  8/5 330 м средняя 
[Sc|Ac trans]
-23.9 -26.3 81 -33  1037.3  -0.4  731  325           
00 07.02.12 080 (В) 10 км  ледяные иглы{снег}  3/0 средняя 
[Ac trans]
-26.7 -29.4 78 -35  1037.8  -0.2  731  328           
03 07.02.12 090 (В) >10 км  ледяные иглы{снег}  ясно 
-26.8 -29.6 78 -35  1036.7  -1.1  731  328        33  очень
неравномерный
сухой снег
(сугробы, заносы) 
06 07.02.12 120 (ЮВ) >10 км  {снег}  ясно 
-25.8 -28.5 77 -32  1036.5  0.1  731  327  -28.3    0.3  33  очень
неравномерный
сухой снег
(сугробы, заносы) 
09 07.02.12 080 (В) >10 км    ясно 
-22.1 -24.4 82 -29  1035.1  -0.3  730  322           
12 07.02.12 060 (СВ) >10 км    ясно 
-21 -23.2 83 -27  1034.1  -0.7  730  320           
15 07.02.12 070 (В) >10 км    3/0 верхняя 
[Ci fib]
-24.4 -27 79 -29  1035.1  -0.1  730  325    -20.8       
18 07.02.12 080 (В) >10 км    3/0 верхняя 
[Ci fib]
-26 -28.6 78 -29  1035.1  -0.4  730  327    -20.8       
21 07.02.12 200 (Ю) >10 км    ясно 
-27.4 -30.2 77 -28  1033.1  -2.2  728  328           
00 08.02.12 020 (С) >10 км    ясно 
-26.9 -29.7 76 -28  1031.3  -1.5  727  327           
03 08.02.12 360 (С) >10 км    5/0 верхняя 
[Ci fib]
-27.1 -29.9 76 -28  1029.9  -1.4  726  326        32  очень
неравномерный
сухой снег
(сугробы, заносы) 
06 08.02.12 270 (З) >10 км    ясно 
-24.3 -26.7 80 -25  1028.8  -0.3  725  323  -29.9      32  очень
неравномерный
сухой снег
(сугробы, заносы) 
09 08.02.12 320 (СЗ) >10 км    ясно 
-19.4 -21.4 84 -25  1027.1  -0.4  725  316           
12 08.02.12 290 (З) >10 км    ясно 
-18.5 -21 80 -23  1027  0.1  725  315           
15 08.02.12 290 (З) >10 км    ясно 
-20.7 -23 81 -25  1028.6  726  318    -18.2       
18 08.02.12 280 (З) >10 км    ясно 
-21.8 -23.9 83 -28  1029.6  0.7  726  320    -18.2       
21 08.02.12 290 (З) >10 км    ясно 
-21.1 -23.2 83 -27  1028.2  -1.2  726  318           
00 09.02.12 270 (З) >10 км    ясно 
-21.1 -23.3 82 -27  1027.4  -1.2  725  318           
03 09.02.12 280 (З) >10 км    3/0 верхняя 
[Ci fib]
-20.9 -23.3 81 -24  1027.8  0.4  725  318        32  очень
неравномерный
сухой снег
(сугробы, заносы) 
06 09.02.12 300 (СЗ) >10 км    4/0 средняя 
[Ac trans]
-19.4 -21.7 82 -24  1027.5  0.1  725  316  -22.2         
09 09.02.12 130 (ЮВ) >10 км    4/0 средняя 
[Ac trans]
-14.6 -17.3 80 -18  1025.1  -1.1  725  310           
12 09.02.12 010 (С) >10 км    8/0 средняя 
[Ac trans]
-13.8 -16.7 79 -17  1024.3  -0.6  724  309           
15 09.02.12 060 (СВ) 10 км  слаб. снег  10/5 600 м средняя 
[Sc|Ac und]
-16 -17.6 88 -18  1025.1  0.3  724  311    -13       
18 09.02.12 080 (В) 4000 м  слаб. ливневой снег  10/6 300 м кучево-дожд., средняя 
[Cb cap|Ac und]
-17.9 -19.6 87 -20  1025.9  0.2  725  314    -13  0.2     
21 09.02.12 130 (ЮВ) 10 км  ледяные иглы{ливн. осадки, снег}  4/0 средняя 
[Ac trans]
-20.1 -22 85 -24  1025.4  -1  724  316           
00 10.02.12 030 (СВ) 10 км  ледяные иглы{ливн. осадки, снег}  3/0 средняя 
[Ac trans]
-21.8 -24 82 -22  1025.6  -0.2  724  319           
03 10.02.12 тихо ()   10 км  слаб. ливневой снег  10/4 300 м кучево-дожд., средняя 
[Cb cap|Ac und]
-19.4 -21.3 85 -19  1025.7  0.6  724  316        33  очень
неравномерный
сухой снег
(сугробы, заносы) 
06 10.02.12 350 (С) 10 км  слаб. ливневой снег  9/4 600 м кучево-дожд., средняя 
[Cb cap|Ac trans]
-17.7 -19.5 86 -20  1026.3  725  314  -24.3    0.4     
09 10.02.12 350 (С) 10 км  ледяные иглы{ливн. осадки, снег}  8/0 средняя, верхняя 
[Ac trans|Ci fib]
-16 -18.1 84 -21  1027  726  312           
12 10.02.12 010 (С) 10 км  слаб. снег{ливн. осадки}  10/4 1000 м средняя 
[Sc diur, vesp|Ac und]
-15.6 -18.2 80 -18  1028  726  312           
15 10.02.12 360 (С) 10 км  {ливн. осадки}  8/0 средняя, верхняя 
[Ac trans|Ci fib]
-18.3 -20.3 84 -21  1030.3  1.6  728  316    -15.5       
18 10.02.12 200 (Ю) >10 км  {снег}  3/0 средняя 
[Ac trans]
-19.6 -21.8 82 -24  1031.6  0.9  728  318    -15.5  0.0     
21 10.02.12 170 (Ю) >10 км    ясно 
-20.5 -22.6 83 -23  1032.9  0.9  729  319           
00 11.02.12 250 (З) >10 км    ясно 
-19.2 -22.2 77 -19  1033.3  0.7  730  318           
03 11.02.12 230 (ЮЗ) >10 км    10/6 540 м средняя 
[Sc|Ac und]
-18.9 -21.4 80 -19  1034.1  0.8  730  318        33  очень
неравномерный
сухой снег
(сугробы, заносы) 
06 11.02.12 360 (С) >10 км    1/0 верхняя 
[Ci fib]
-14.5 -18.4 72 -15  1034.3  1.2  731  312  -21.5      33  очень
неравномерный
сухой снег
(сугробы, заносы) 
09 11.02.12 тихо ()   >10 км    6/0 верхняя 
[Ci fib]
-10.6 -16.1 64 -11  1034.4  732  308           
12 11.02.12 140 (ЮВ) >10 км    8/0 верхняя 
[Ci fib]
-10.2 -15.2 67 -10  1034.7  0.4  732  308           
15 11.02.12 170 (Ю) >10 км    6/0 средняя 
[Ac trans]
-12.5 -16.5 72 -16  1036  0.7  733  311    -9.8       
18 11.02.12 180 (Ю) >10 км    3/0 средняя 
[Ac trans]
-13.2 -16.1 78 -17  1035.9  -0.3  732  311    -9.8       
21 11.02.12 170 (Ю) >10 км    ясно 
-10 -14.3 71 -15  1034.9  -0.3  732  307           
00 12.02.12 180 (Ю) >10 км    4/0 средняя 
[Ac trans]
-7.8 -12.9 67 -14  1034.4  0.1  732  305           
03 12.02.12 180 (Ю) >10 км    4/0 средняя 
[Ac trans]
-7.7 -13.7 62 -12  1034.6  0.2  732  305        33  очень
неравномерный
сухой снег
(сугробы, заносы) 
06 12.02.12 170 (Ю) >10 км    8/0 средняя, верхняя 
[Ac trans|Ci fib]
-5.2 -12.7 56 -9  1034.6  0.6  733  302  -14.4      33  очень
неравномерный
сухой снег
(сугробы, заносы) 
09 12.02.12 130 (ЮВ) >10 км    8/0 средняя, верхняя 
[Ac trans|Ci fib]
-2.6 -9.5 59 -6  1033.4  -0.6  732  299           
12 12.02.12 120 (ЮВ) >10 км    6/0 верхняя 
[Ci fib]
-3.8 -8.5 70 -8  1032.3  -1.2  731  300           
15 12.02.12 150 (ЮВ) >10 км    8/0 средняя, верхняя 
[Ac trans|Ci fib]
-6.2 -10 74 -10  1032.6  -0.2  731  302    -2.5       
18 12.02.12 160 (Ю) >10 км    10/0 средняя, верхняя 
[Ac trans|Ci sp]
-8.5 -11.2 81 -12  1032.8  -0.3  731  305    -2.5       
21 12.02.12 140 (ЮВ) >10 км    10/0 средняя, верхняя 
[Ac trans|Ci fib]
-8.6 -11.3 81 -12  1031.4  -1.3  730  305           
00 13.02.12 130 (ЮВ) >10 км    3/0 верхняя 
[Ci fib]
-9.2 -12.3 78 -13  1030.6  -0.9  729  305           
03 13.02.12 160 (Ю) >10 км    4/0 верхняя 
[Ci fib]
-6.8 -11.9 67 -10  1029.1  -0.9  729  302        30  неравномерный
мокрый или
старый снег
100% 
06 13.02.12 140 (ЮВ) >10 км    8/0 средняя, верхняя 
[Ac trans|Ci fib]
-6.5 -11.5 68 -10  1028.7  -0.3  728  302  -9.4      30  неравномерный
мокрый или
старый снег
100% 
09 13.02.12 100 (В) >10 км    8/0 средняя 
[Ac trans]
-4.5 -9 71 -7  1027.4  -0.8  728  299           
12 13.02.12 120 (ЮВ) >10 км    5/0 средняя, верхняя 
[Ac trans|Ci fib]
-3.1 -6.6 77 -6  1025.6  -1.4  727  297           
15 13.02.12 150 (ЮВ) >10 км    4/0 верхняя 
[Ci fib]
-6.7 -9.1 83 -11  1025.6  -0.8  726  301    -2.9       
18 13.02.12 120 (ЮВ) >10 км    3/0 верхняя 
[Ci fib]
-8.7 -10.4 87 -14  1025.1  -0.9  725  303    -2.9       
21 13.02.12 140 (ЮВ) >10 км    3/0 верхняя 
[Ci fib]
-8.1 -9 93 -12  1023  -1.8  724  302           
00 14.02.12 120 (ЮВ) >10 км    ясно 
-7.8 -8.6 94 -14  1020.8  -1.9  723  301           
03 14.02.12 140 (ЮВ) >10 км    ясно 
-8.2 -9 94 -15  1020.4  -0.5  722  301        30  неравномерный
мокрый или
старый снег
100% 
06 14.02.12 150 (ЮВ) 10  10 км    6/6 120 м 
[St]
-5.7 -6.3 96 -12  1019.5  -0.3  722  298  -8.9      30  неравномерный
мокрый или
старый снег
100% 
09 14.02.12 140 (ЮВ) 10 км  в посл. час снег  10/10 100 м 
[St]
-2.2 -3.3 92 -7  1017.7  -1  721  293           
12 14.02.12 150 (ЮВ) 10 км  {снег}  10/6 200 м средняя 
[St|Ac und]
-1.8 -3.2 90 -6  1016.3  -1.3  720  292           
15 14.02.12 150 (ЮВ) 10 км  {снег}  10/6 200 м средняя 
[St|Ac und]
-1.8 -3.2 90 -6  1016.3  -1.3  720  292           
18 14.02.12 180 (Ю) >10 км    8/3 300 м средняя 
[Sc|Ac trans]
-3.7 -4.7 93 -5  1017.1  -0.1  721  295    -1.3  0.0     
21 14.02.12 120 (ЮВ) >10 км    10/5 300 м средняя 
[Sc|Ac und]
-3.9 -5.3 90 -3  1017.1  721  295           
00 15.02.12 110 (В) >10 км    8/0 средняя 
[Ac trans]
-4.5 -6.3 87 -7  1016.5  -0.7  720  296           
03 15.02.12 120 (ЮВ) >10 км    4/1 100 м средняя 
[St|Ac trans]
-6.4 -7 96 -9  1015  -1.8  719  297        31  очень
неравномерный
сухой снег
(сугробы, заносы) 
06 15.02.12 120 (ЮВ) 0300 м  переохл. туман  ?/?  
-4.2 -4.6 97 -6  1012.5  -1.9  717  294  -6.8         
09 15.02.12 120 (ЮВ) 0900 м  переохл. туман  ?/?  
-1.7 -2.1 97 -4  1009.3  -2.5  715  290           
12 15.02.12 120 (ЮВ) 2000 м  дымка{туман}  10/10 120 м 
[St]
-1.2 -1.6 97 -4  1006.4  -2.6  713  289           
15 15.02.12 120 (ЮВ) 2000 м  дымка{туман}  10/10 120 м 
[St]
-2.5 -3 96 -6  1005.5  -1.2  713  290    -1.1       
18 15.02.12 140 (ЮВ) 2000 м  дымка{туман}  10/10 60 м 
[St]
-3.6 -3.9 98 -8  1004.5  -1.1  712  291    -1.1       
21 15.02.12 130 (ЮВ) 2000 м  дымка  10/10 100 м 
[St]
-4 -4.4 97 -9  1003.4  -1.1  711  291           
00 16.02.12 160 (Ю) 2000 м  дымка  10/10 100 м 
[St]
-3.6 -4.1 96 -7  1003  -0.4  711  291           
03 16.02.12 150 (ЮВ) 10 км  дымка  10/10 100 м 
[St]
-4.7 -5.1 97 -4  1004.7  1.4  712  292        31  неравномерный
мокрый или
старый снег
100% 
06 16.02.12 280 (З) 3000 м    10/10 120 м 
[St]
-2.2 -2.6 97 -5  1005.9  1.7  713  290  -5.1      31  неравномерный
мокрый или
старый снег
100% 
09 16.02.12 270 (З) 10 км  в посл. час снег  10/8 400 м средняя 
[Sc|Ac und]
-2.2 -3.5 91 -6  1007.1  1.2  714  290           
12 16.02.12 280 (З) 4000 м  дымка{снег}  10/8 120 м средняя 
[St|Ac und]
-2.5 -3 96 -6  1007.9  0.6  714  291           
15 16.02.12 280 (З) 10 км    10/8 300 м средняя 
[Sc|Ac und]
-2.9 -4 92 -6  1009.3  1.3  715  292    -2.1       
18 16.02.12 280 (З) >10 км    10/6 570 м средняя 
[Sc|Ac und]
-4 -5.7 88 -4  1010.3  0.7  716  293    -2.1  0.4     
21 16.02.12 280 (З) >10 км    8/3 600 м средняя 
[Sc|Ac trans]
-5.7 -7.1 90 -7  1010.1  -0.5  715  295           
00 17.02.12 тихо ()   >10 км    3/0 средняя 
[Ac trans]
-9 -9.8 94 -9  1010.6  -0.2  715  299           
03 17.02.12 170 (Ю) >10 км  {туман}  8/8 300 м 
[Sc]
-5.5 -6.1 96 -5  1009.8  -0.2  715  295        31  неравномерный
мокрый или
старый снег
100% 
06 17.02.12 140 (ЮВ) 10 км  {туман}  10/10 200 м 
[St]
-4.4 -5 95 -4  1009.9  0.4  715  293  -9      31  неравномерный
мокрый или
старый снег
100% 
09 17.02.12 140 (ЮВ) 10 км    10/10 210 м 
[St]
-2.7 -4.3 89 -5  1008.9  -0.6  715  291           
12 17.02.12 100 (В) 10 км    10/10 240 м 
[St]
-3 -4.3 91 -6  1008.6  -0.3  715  292           
15 17.02.12 080 (В) 0900 м  туман  ?/?  
-3.5 -3.9 97 -8  1008.2  -0.5  714  292           
18 17.02.12 090 (В) 0900 м  переохл. туман{снег}  ?/?  
-4 -4.5 96 -8  1008.1  -0.2  714  292    -2.4       
21 17.02.12 070 (В) 0400 м  переохл. туман{снег}  ?/?  
-5.9 -6.5 95 -11  1007.9  -0.6  714  295           
00 18.02.12 080 (В) 0500 м  слаб. снег{туман}  ?/?  
-7.5 -8.2 95 -12  1008.3  714  297           
03 18.02.12 070 (В) 1500 м  слаб. снег  10/10 100 м 
[Ns]
-7.8 -8.6 94 -11  1008.6  0.2  714  297        32  очень
неравномерный
сухой снег
(сугробы, заносы) 
06 18.02.12 060 (СВ) 1500 м  слаб. снег{туман}  10/10 100 м 
[Ns]
-7.9 -8.7 94 -12  1009.9  1.2  715  297  -7.9    0.6     
09 18.02.12 060 (СВ) 2500 м  слаб. снег  10/10 330 м 
[Sc]
-8.2 -9 94 -12  1010.7  0.7  715  298           
12 18.02.12 060 (СВ) 2500 м  дымка{снег, туман}  10/10 210 м 
[St]
-8.1 -9 93 -11  1011.9  1.1  716  298           
15 18.02.12 070 (В) 3000 м  дымка  10/10 120 м 
[St]
-8.8 -9.7 93 -13  1013.4  1.2  717  300    -7.7       
18 18.02.12 070 (В) 1500 м  снег  10/10 100 м 
[Ns]
-9.9 -10.9 92 -13  1015.2  1.4  718  301    -7.7  0.9     
21 18.02.12 060 (СВ) 1500 м  снег  10/10 100 м 
[Ns]
-10.5 -11.5 92 -10  1016.4  719  302           
00 19.02.12 070 (В) 2000 м  снег  10/10 240 м 
[Ns]
-11 -12.1 92 -13  1017.7  1.1  720  303           
03 19.02.12 110 (В) 4000 м  слаб. снег  10/10 200 м 
[Frnb|Ns]
-10.9 -12 91 -11  1019  1.2  721  304        38  очень
неравномерный
сухой снег
(сугробы, заносы) 
06 19.02.12 110 (В) 3000 м  слаб. снег  10/10 200 м 
[Frnb|Ns]
-3.9 -10.2 62 -3  1021  2.2  722  296  -11.1       
09 19.02.12 070 (В) 4000 м  слаб. ливневой снег  10/5 300 м кучево-дожд., верхняя 
[Cb cap|Cs]
-4.3 -4.8 96 -4  1021.8  1.8  724  297           
12 19.02.12 030 (СВ) 4000 м  слаб. ливневой снег  10/8 500 м кучево-дожд., средняя, верхняя 
[Cb cap|Ac trans|Cs]
-7.3 -8.1 94 -9  1024  1.5  725  301           
15 19.02.12 тихо ()   10 км  слаб. ливневой снег  10/3 300 м кучево-дожд., средняя, верхняя 
[Cb calv|Ac trans|Cs]
-13 -14.3 90 -13  1027.8  2.3  727  309    -4       
18 19.02.12 060 (СВ) 10 км  {ливн. осадки}  4/0 верхняя 
[Ci fib]
-15.8 -17.4 87 -16  1031  2.3  728  313    -4     
21 19.02.12 тихо ()   10 км    6/3 240 м верхняя 
[St|Ci fib]
-14.4 -15.8 89 -14  1032.8  730  312           
00 20.02.12 тихо ()   4000 м  дымка  6/3 200 м верхняя 
[St|Ci fib]
-14.4 -15.8 89 -14  1034.3  1.4  731  312           
03 20.02.12 тихо ()   2000 м  дымка  3/0 верхняя 
[Ci fib]
-16 -17.5 88 -16  1037  2.2  733  315        39  очень
неравномерный
сухой снег
(сугробы, заносы) 
06 20.02.12 120 (ЮВ) 1500 м  дымка{туман}  3/0 средняя 
[Ac trans]
-6.3 -6.9 96 -6  1036.9  2.1  734  304  -16.6    0.0     
09 20.02.12 220 (ЮЗ) 10 км    6/0 средняя 
[Ac trans]
-5.7 -6.8 92 -5  1037.8  735  303           
12 20.02.12 140 (ЮВ) >10 км    6/0 средняя 
[Ac trans]
-4.7 -6 91 -4  1037.8  0.2  735  302           
15 20.02.12 170 (Ю) >10 км    ясно 
-9 -10.1 92 -9  1040  1.1  736  308           
18 20.02.12 200 (Ю) 10 км    3/0 верхняя 
[Ci fib]
-7.6 -8.3 95 -9  1039.9  0.2  736  306    -1.8       
21 20.02.12 200 (Ю) >10 км    ясно 
-8.4 -9.1 94 -8  1039.6  -0.4  736  307           
00 21.02.12 190 (Ю) >10 км    ясно 
-7.6 -8.4 94 -9  1038.8  -0.7  735  306           
03 21.02.12 230 (ЮЗ) >10 км    ясно 
-8.1 -9.4 90 -12  1038.1  -0.7  735  306        39  очень
неравномерный
сухой снег
(сугробы, заносы) 
06 21.02.12 220 (ЮЗ) >10 км    5/0 <0100 м 
[]
-5.9 -7.4 89 -8  1037.2  -0.4  735  303  -12      39  очень
неравномерный
сухой снег
(сугробы, заносы) 
09 21.02.12 170 (Ю) >10 км    5/0 верхняя 
[Ci fib]
+0.9 -3.5 72 -1  1034.7  -0.9  734  295           
12 21.02.12 130 (ЮВ) >10 км    10/0 средняя, верхняя 
[Ac und|Ci fib]
-0.6 -5.8 68 -2  1033.6  -1.4  733  296           
15 21.02.12 150 (ЮВ) >10 км    10/0 средняя, верхняя 
[Ac und|Ci fib]
-3.7 -7.6 74 -6  1033.3  -0.9  732  300    +1.4       
18 21.02.12 тихо ()   >10 км    6/0 средняя, верхняя 
[Ac trans|Ci fib]
-7.2 -8.8 88 -7  1033.4  -0.9  732  304    +1.4       
21 21.02.12 230 (ЮЗ) >10 км    6/0 средняя 
[Ac trans]
-6.3 -8 88 -6  1032  -1.1  731  302           
00 22.02.12 270 (З) >10 км    6/0 средняя 
[Ac trans]
-7.4 -8.4 93 -7  1031.6  -0.6  730  303           
03 22.02.12 320 (СЗ) >10 км    5/0 средняя 
[Ac trans]
-7.1 -8 93 -9  1031.6  730  303        38  очень
неравномерный
сухой снег
(сугробы, заносы) 
06 22.02.12 тихо ()   >10 км    8/1 600 м средняя, верхняя 
[Sc|Ac trans|Ci fib]
-4.1 -7.8 75 -4  1031.2  0.3  731  300  -10.3      38  очень
неравномерный
сухой снег
(сугробы, заносы) 
09 22.02.12 140 (ЮВ) >10 км    4/0 верхняя 
[Ci fib]
+1 -5.5 62 1029.6  -0.5  730  294           
12 22.02.12 130 (ЮВ) >10 км    3/0 средняя 
[Ac trans]
+0.7 -5 66 +1  1028.6  -0.9  729  294           
15 22.02.12 150 (ЮВ) >10 км    9/0 средняя, верхняя 
[Ac trans|Ci fib]
-3.4 -6.6 79 -5  1028.5  -0.9  729  298    +2       
18 22.02.12 190 (Ю) >10 км    10/3 1000 м кучево-дожд., средняя 
[Cb calv|Ac und]
-2.3 -5.9 76 -4  1027.2  -1  728  296    +2       
21 22.02.12 190 (Ю) >10 км    10/3 1000 м кучево-дожд., средняя 
[Cb calv|Ac und]
-2 -7 69 -5  1026.4  -0.8  727  296           
00 23.02.12 250 (З) 2000 м  ливневой снег  10/4 210 м кучево-дожд., средняя 
[Cb cap|Ac und]
-1.8 -2.5 95 -4  1025  -1.2  727  295           
03 23.02.12 290 (З) 1200 м  ливневой снег  10/6 200 м кучево-дожд., средняя 
[Cb cap|Ac und]
-3.6 -4.3 95 -7  1025.3  -0.1  726  297        43  очень
неравномерный
сухой снег
(сугробы, заносы) 
06 23.02.12 200 (Ю) 4000 м  слаб. ливневой снег  10/6 300 м кучево-дожд., средняя 
[Cb cap|Ac und]
-3.7 -4.3 95 -6  1025.3  0.1  726  297  -4.3       
09 23.02.12 290 (З) 4000 м  слаб. ливневой снег  10/6 300 м кучево-дожд., средняя 
[Cb cap|Ac und]
-2.6 -3.6 93 -7  1025.2  0.1  727  296           
12 23.02.12 290 (З) 4000 м  слаб. ливневой снег  10/5 150 м кучево-дожд., средняя 
[Cb cap|Ac und]
-2.2 -3.8 89 -5  1024.4  -0.6  726  295           
15 23.02.12 280 (З) 4000 м  дымка{ливн. осадки}  9/8 700 м кучево-дожд., средняя 
[Cb cap|Ac As]
-4.3 -6.1 87 -6  1024.5  -0.4  726  298    -2.1       
18 23.02.12 180 (Ю) 10 км  {ливн. осадки}  4/0 средняя 
[Ac trans]
-9 -9.7 95 -11  1024.2  -1.3  725  303    -2.1     
21 23.02.12 200 (Ю) 10 км  {туман}  4/4 600 м 
[Sc]
-4.1 -4.7 96 -6  1021.3  -1.7  724  296           
00 24.02.12 190 (Ю) 10 км  {туман}  10/6 660 м кучево-дожд., средняя 
[Cb calv|Ac und]
-5.8 -6.6 94 -5  1019.2  -1.7  722  298           
03 24.02.12 170 (Ю) >10 км    10/8 800 м средняя 
[Sc|Ac und]
-3.8 -5.7 87 -6  1017  -1.6  721  295        46  очень
неравномерный
сухой снег
(сугробы, заносы) 
06 24.02.12 130 (ЮВ) >10 км    10/4 1000 м средняя 
[Sc|Ac und]
-1.6 -5.9 73 -4  1014.7  -1.7  727  295  -10.3      46  очень
неравномерный
сухой снег
(сугробы, заносы) 
09 24.02.12 140 (ЮВ) >10 км    8/0 средняя, верхняя 
[Ac trans|Ci fib]
+1.4 -5.9 58 +1  1013.2  -0.8  719  289           
12 24.02.12 170 (Ю) >10 км    9/0 верхняя 
[Ci fib]
-0.3 -5.8 66 -3  1011.6  -1.9  717  290           
15 24.02.12 190 (Ю) >10 км    10/0 средняя 
[Ac und]
-1.9 -7.2 67 -5  1011.8  -0.1  717  292    +2.4       
18 24.02.12 190 (Ю) >10 км    10/3 600 м средняя 
[Sc|Ac und]
-2.5 -7 71 -6  1010.5  -1.4  716  292    +2.4       
21 24.02.12 230 (ЮЗ) >10 км    10/4 600 м средняя 
[Sc|Ac und]
-1.4 -8.1 60 -3  1009.8  -0.5  716  291           
00 25.02.12 240 (ЮЗ) >10 км    10/4 600 м средняя 
[Sc|Ac und]
-0.6 -4.9 73 -2  1009.2  -0.4  716  289           
03 25.02.12 280 (З) >10 км  слаб. снег  10/5 600 м средняя 
[Sc|Ac und]
+0.2 -1.2 90 -2  1007.8  -1.1  715  288        42  очень
неравномерный
сухой снег
(сугробы, заносы) 
06 25.02.12 110 (В) 10 км  в посл. час снег  10/8 600 м средняя 
[Sc diur, vesp|Ac und]
-1.2 -2 94 -3  1007.4  -0.7  714  289  -2.5    0.0     
09 25.02.12 120 (ЮВ) >10 км    10/6 1000 м средняя 
[Sc|Ac und]
+2 -1 81 +1  1004.9  -1.7  713  285           
12 25.02.12 160 (Ю) >10 км    10/6 1000 м средняя 
[Sc|Ac und]
+1.6 -3.7 68 1003.1  -1.9  711  285           
15 25.02.12 140 (ЮВ) >10 км    10/6 1000 м средняя 
[Sc|Ac und]
+2.1 -6.5 53 1001.9  -1.1  711  285    +3.2       
18 25.02.12 230 (ЮЗ) 10 км  слаб. ливневой дождь со снегом  10/6 300 м кучево-дожд., средняя 
[Cb cap|Ac und]
+0.8 -0.3 92 -1  1003.4  1.2  712  286    +3.2  0.0     
21 25.02.12 230 (ЮЗ) 4000 м  слаб. ливневой снег  10/8 300 м кучево-дожд., средняя 
[Cb cap|Ac und]
+1.5 -0.3 88 -2  1003.3  0.1  712  285           
00 26.02.12 260 (З) >10 км  {ливн. осадки}  10/8 450 м кучево-дожд., средняя 
[Cb calv|Ac und]
+1.9 -1 81 -2  1003.4  0.2  712  285           
03 26.02.12 260 (З) >10 км  слаб. ливневой снег  10/6 300 м кучево-дожд., средняя 
[Cb cap|Ac und]
+0.9 -0.4 91 -3  1004.8  1.1  713  286        39  неравномерный
мокрый или
старый снег
100% 
06 26.02.12 260 (З) 10  >10 км  {ливн. осадки}  8/4 600 м кучево-дожд., средняя, верхняя 
[Cb cap|Ac trans|Ci fib]
+1.6 -1.5 80 -3  1005.5  0.9  713  286  +0.8       
09 26.02.12 270 (З) >10 км    10/6 600 м кучево-дожд., средняя 
[Cb cap|Ac und]
+2 -1.9 75 -2  1006.2  0.7  714  286           
12 26.02.12 260 (З) >10 км  слаб. ливневой снег  10/6 570 м кучево-дожд., средняя 
[Cb cap|Ac und]
+0.7 -1.7 84 -3  1008.2  1.7  715  287           
15 26.02.12 240 (ЮЗ) >10 км  {ливн. осадки}  10/6 600 м кучево-дожд., средняя 
[Cb cap|Ac und]
+1.1 -1.8 81 -3  1009.2  716  287    +2.1       
18 26.02.12 270 (З) >10 км    8/3 600 м кучево-дожд., средняя 
[Cb calv|Ac trans]
+1 -2.3 79 -2  1010.7  717  288    +2.1  0.0     
21 26.02.12 200 (Ю) >10 км    4/3 1000 м кучево-дожд., средняя 
[Cb cap|Ac trans]
-1.5 -3.5 86 -5  1011.8  0.5  717  291           
00 27.02.12 190 (Ю) >10 км    10/4 1000 м кучево-дожд., средняя 
[Cb calv|Ac und]
-0.2 -2.4 85 -2  1012.2  0.6  718  290           
03 27.02.12 130 (ЮВ) >10 км  {ливн. осадки}  10/5 1000 м кучево-дожд., средняя 
[Cb calv|Ac und]
-0.6 -2.4 88 -2  1011.9  -0.3  717  290        37  неравномерный
мокрый или
старый снег
100% 
06 27.02.12 110 (В) >10 км  {ливн. осадки}  10/8 1000 м кучево-дожд., средняя 
[Cb calv|Ac und]
+0.6 -1.2 88 +1  1012.6  0.9  718  289  -1.7         
09 27.02.12 140 (ЮВ) 4000 м  слаб. ливневой снег  10/8 600 м кучево-дожд., средняя 
[Cb cap|Ac und]
+1.3 -0.2 90 1012.4  718  288           
12 27.02.12 120 (ЮВ) 4000 м  дымка{ливн. осадки}  10/8 330 м кучево-дожд., средняя 
[Cb calv|Ac und]
+2 +0.6 90 +1  1011.5  -0.7  718  287           
15 27.02.12 050 (СВ) >10 км    10/4 600 м кучево-дожд., средняя 
[Cb calv|Ac und]
+1 +0.1 94 -1  1011.1  -0.6  717  288    +2.5       
18 27.02.12 090 (В) >10 км    10/4 600 м кучево-дожд., средняя 
[Cb calv|Ac und]
+0.1 -1.2 91 -2  1010.7  -0.5  717  289    +2.5     
21 27.02.12 110 (В) >10 км    10/5 600 м кучево-дожд., средняя 
[Cb calv|Ac und]
+0.1 -0.6 95 -3  1009.5  -1.2  716  288           
00 28.02.12 090 (В) 4000 м  дымка  10/8 300 м средняя 
[Sc diur, vesp|Ac und]
-0.9 -1.2 98 -3  1008.4  -1.2  715  289           
03 28.02.12 100 (В) 0400 м  туман  ?/?  
-1.5 -1.8 98 -5  1007.8  -0.6  714  290        31  неравномерный
мокрый или
старый снег
100% 
06 28.02.12 140 (ЮВ) 0400 м  туман [диам. гололёда 2 мм]  ?/?  
-1.2 -1.5 98 -5  1007.7  0.1  714  289  -1.5      31  неравномерный
мокрый или
старый снег
100% 
09 28.02.12 120 (ЮВ) >10 км  {туман}  8/5 180 м средняя 
[St|Ac trans]
+0.2 -0.9 92 -2  1006.9  -0.4  714  287           
12 28.02.12 110 (В) >10 км  {туман}  8/3 200 м верхняя 
[St|Ci]
+0.5 -0.8 91 -2  1005.7  -1  713  287           
15 28.02.12 100 (В) >10 км    10/3 200 м средняя 
[St|Ac und]
-0.5 -1.2 95 1005.6  -0.4  713  288    +0.9       
18 28.02.12 110 (В) 10 км    10/0 средняя, верхняя 
[Ac trans|Ci fib]
-0.8 -1.3 96 -3  1004.2  -1.4  712  288    +0.9       
21 28.02.12 130 (ЮВ) 0500 м  туман  4/4 200 м 
[St]
-2.4 -2.7 98 -4  1002.8  -1.6  711  289           
00 29.02.12 150 (ЮВ) 0400 м  переохл. туман [диам. сложн. отлож. 2 мм]  5/5 150 м 
[St]
-3.9 -4.3 97 -3  1001.5  -1.5  710  290           
03 29.02.12 130 (ЮВ) 0400 м  переохл. туман [диам. сложн. отлож. 3 мм]  ?/?  
-2.7 -3 98 -4  1000.4  -0.8  709  289        31  неравномерный
мокрый или
старый снег
100% 
06 29.02.12 160 (Ю) 0400 м  переохл. туман [диам. сложн. отлож. 4 мм]  ?/?  
-1.7 -1.9 99 -3  1000.1  709  288  -4.7      31  неравномерный
мокрый или
старый снег
100% 
09 29.02.12 270 (З) 0700 м  туман [диам. сложн. отлож. 4 мм]  ?/?  
-1.1 -1.4 98 -5  1001  0.9  710  287           
12 29.02.12 290 (З) 0300 м  туман  ?/?  
-0.9 -1.2 98 -3  1000.8  0.1  710  287           
15 29.02.12 290 (З) 0300 м  туман  ?/?  
-0.9 -1.2 98 -3  1000.8  0.1  710  287           
18 29.02.12 280 (З) 0200 м  переохл. морось (гололёд){туман} [диам. гололёда 7 мм]  ?/?  
-1.3 -1.5 99 -3  1003.2  0.9  711  288    -0.7       
21 29.02.12 290 (З) 0500 м  переохл. морось (гололёд){туман} [диам. гололёда 10 мм]  ?/?  
-1.6 -1.9 98 -5  1003.5  0.2  711  288           
00 01.03.12 300 (СЗ) 0600 м  переохл. морось (гололёд){туман} [диам. гололёда 14 мм]  ?/?  
-1.9 -2.1 99 -3  1004.3  0.7  712  288           
03 01.03.12 310 (СЗ) 0700 м  переохл. морось (гололёд){туман} [диам. гололёда 16 мм]  ?/?  
-1.9 -2.1 99 -3  1003.8  -0.5  712  289        34  неравномерный
мокрый или
старый снег
100% 
06 01.03.12 тихо ()   1000 м  переохл. морось (гололёд){туман}  10/10 100 м 
[St]
-1.6 -1.9 98 -2  1004  0.2  712  289  -1.9      34  неравномерный
мокрый или
старый снег
100% 
09 01.03.12 310 (СЗ) 10 км  снежные зёрна{морось} [диам. гололёда 17 мм]  10/10 270 м 
[St]
-1.6 -1.9 98 -3  1003.8  -0.2  712  289           
12 01.03.12 310 (СЗ) 10 км  {снег, морось} [диам. гололёда 10 мм]  10/10 240 м 
[St]
-1.9 -2.3 97 -5  1004.6  0.7  712  289           
15 01.03.12 290 (З) 4000 м  снежные зёрна  10/10 180 м 
[St]
-2.2 -2.6 97 -6  1007.1  2.3  714  290    -1.4       
18 01.03.12 290 (З) 4000 м  слаб. снег  10/10 100 м 
[Ns]
-1.9 -2.2 98 -6  1007.9  0.8  714  290    -1.1  0.7     
21 01.03.12 280 (З) 4000 м  слаб. снег [диам. гололёда 10 мм]  10/10 210 м 
[Ns]
-2.8 -3.2 97 -6  1008  0.1  714  291           
00 02.03.12 300 (СЗ) 10 км  слаб. снег [диам. гололёда 10 мм]  10/10 240 м 
[Ns]
-4.2 -4.7 96 -9  1007.9  -0.3  714  293           
03 02.03.12 290 (З) 4000 м  слаб. снег  10/10 300 м 
[Ns]
-4.3 -4.8 96 -8  1008.2  0.2  714  293        35  равномерный
сухой снег
100% 
06 02.03.12 280 (З) 4000 м  слаб. снег  10/10 200 м 
[Ns]
-3.5 -4.1 96 -8  1008.3  0.3  714  292  -4.7    0.4     
09 02.03.12 280 (З) 4000 м  слаб. снег  10/6 420 м кучево-дожд., средняя 
[Cb cap|Ac und]
-3.3 -4.4 92 -8  1008.1  -0.2  714  292           
12 02.03.12 280 (З) 10 км  слаб. ливневой снег [диам. гололёда 5 мм]  9/8 400 м кучево-дожд., средняя 
[Cb cap|Ac trans]
-3.8 -5.4 89 -8  1007.3  -0.8  714  292           
15 02.03.12 270 (З) >10 км  позёмок{ливн. осадки}  6/3 480 м кучево-дожд., средняя 
[Cb calv|Ac trans]
-5.4 -6.8 90 -11  1008.2  0.5  714  294    -2.9       
18 02.03.12 270 (З) >10 км  позёмок{ливн. осадки}  9/5 300 м кучево-дожд., средняя 
[Cb calv|Ac trans]
-8.2 -9.7 89 -15  1009.9  0.9  715  298    -2.9     
21 02.03.12 270 (З) 10 км  позёмок  6/3 600 м кучево-дожд., средняя 
[Cb cap|Ac trans]
-8.5 -9.8 90 -15  1008.3  -1.5  714  298           
00 03.03.12 260 (З) 10 км  позёмок  10/8 420 м кучево-дожд., средняя 
[Cb calv|Ac und]
-7.6 -8.5 93 -13  1006.4  -1.6  712  296           
03 03.03.12 270 (З) 10 км  позёмок  9/6 300 м кучево-дожд., средняя 
[Cb calv|Ac trans]
-8.1 -9.2 92 -13  1005.8  -0.6  712  296        34  равномерный
сухой снег
100% 
Время (UTC), дата Ветер
(°,м/с) 
Видим.   Явления Облачность Т
(°С)
Тd
(°С)
f(%) Тe
(°С)
Pmin
(гПа)
dP
(гПа)
Po
(мм)
O2
(г/м3)
Тmin Tmax R s Состояние
почвы